Temp
-6 -7 -7 -7 -7 -7 -7 -7 -7 -7 -7 -7 -7 -7 -7 -8 -8 -8 -8 -8 -8 -8 -8 -8 -8 -8 -8 -8 -8 -9 -9 -9 -9 -9 -9 -9 -9 -9 -10 -10 -10 -10 -10
-6 -6 -7 -7 -7 -7 -6 -6 -7 -7 -7 -7 -7 -7 -7 -8 -8 -8 -8 -8 -8 -8 -8 -8 -9 -8 -8 -8 -9 -9 -8 -9 -9 -9 -9 -9 -9 -9 -10 -10 -10 -10 -10
-6 -6 -6 -7 -7 -7 -7 -6 -6 -7 -6 -7 -7 -7 -8 -7 -8 -8 -8 -8 -8 -8 -8 -8 -9 -8 -8 -8 -8 -9 -9 -9 -9 -9 -9 -9 -9 -9 -9 -9 -10 -10 -10
-5 -6 -6 -7 -7 -7 -7 -6 -7 -7 -7 -7 -7 -7 -7 -7 -7 -8 -8 -8 -8 -8 -8 -8 -8 -9 -8 -9 -8 -9 -9 -9 -9 -9 -9 -9 -9 -9 -9 -9 -9 -10 -10
-6 -6 -6 -6 -7 -7 -7 -7 -7 -7 -7 -7 -7 -7 -7 -7 -7 -8 -8 -8 -8 -8 -8 -8 -8 -8 -8 -9 -8 -9 -8 -9 -9 -9 -9 -8 -9 -9 -9 -9 -9 -10 -10
-5 -6 -6 -6 -6 -7 -7 -7 -7 -7 -7 -7 -7 -7 -7 -7 -7 -8 -7 -7 -7 -8 -8 -8 -8 -8 -8 -8 -7 -8 -8 -9 -8 -8 -8 -8 -9 -9 -9 -9 -10 -10 -10
-5 -6 -6 -6 -6 -7 -7 -7 -7 -7 -7 -6 -7 -7 -7 -7 -7 -7 -7 -7 -7 -8 -8 -8 -8 -8 -8 -8 -8 -8 -8 -8 -8 -8 -8 -8 -8 -9 -9 -9 -10 -10 -10
-5 -6 -6 -6 -6 -7 -7 -7 -7 -7 -6 -6 -6 -7 -7 -7 -7 -7 -7 -7 -7 -8 -7 -7 -7 -8 -8 -8 -8 -8 -8 -8 -8 -8 -8 -8 -8 -8 -9 -9 -9 -10 -10
-5 -5 -6 -6 -6 -7 -7 -7 -7 -6 -6 -6 -7 -7 -7 -7 -7 -6 -7 -7 -7 -7 -7 -7 -7 -7 -8 -7 -7 -7 -8 -7 -7 -7 -7 -8 -8 -8 -9 -9 -9 -9 -9
-5 -6 -6 -6 -6 -7 -7 -7 -7 -6 -6 -6 -7 -7 -7 -7 -7 -7 -7 -7 -7 -7 -7 -7 -7 -7 -7 -7 -7 -8 -8 -7 -7 -7 -8 -8 -8 -8 -9 -9 -9 -9 -9
-5 -5 -6 -6 -6 -7 -7 -7 -6 -6 -6 -6 -7 -7 -7 -7 -7 -7 -7 -7 -7 -7 -7 -7 -7 -7 -7 -7 -7 -7 -8 -8 -8 -7 -8 -8 -8 -8 -9 -9 -9 -9 -9
-6 -6 -6 -6 -6 -7 -7 -7 -6 -6 -6 -6 -7 -7 -7 -7 -7 -6 -7 -6 -7 -7 -7 -7 -7 -7 -7 -7 -7 -7 -7 -7 -7 -7 -7 -8 -8 -8 -9 -9 -8 -9 -9
-5 -5 -6 -6 -6 -6 -7 -6 -6 -6 -6 -6 -6 -6 -7 -7 -7 -6 -7 -6 -6 -7 -7 -6 -6 -6 -7 -7 -7 -7 -7 -7 -7 -7 -7 -8 -8 -8 -9 -9 -9 -9 -9
-5 -6 -6 -6 -6 -6 -6 -6 -6 -7 -7 -7 -6 -6 -6 -7 -7 -6 -7 -7 -7 -6 -6 -6 -6 -6 -7 -7 -7 -7 -7 -7 -7 -7 -7 -7 -8 -8 -8 -9 -9 -9 -9
-6 -6 -6 -6 -6 -6 -6 -6 -6 -7 -7 -7 -6 -6 -6 -6 -6 -7 -7 -7 -7 -7 -6 -6 -6 -7 -7 -6 -6 -6 -7 -6 -7 -7 -7 -7 -8 -8 -8 -8 -8 -9 -9
-6 -6 -6 -6 -6 -6 -6 -6 -6 -6 -6 -6 -6 -6 -6 -6 -6 -6 -6 -6 -6 -7 -6 -6 -6 -6 -6 -6 -6 -6 -6 -6 -7 -7 -7 -7 -7 -7 -8 -8 -8 -8 -9
-6 -7 -6 -6 -6 -6 -6 -6 -6 -6 -6 -6 -6 -6 -6 -6 -6 -6 -6 -6 -6 -6 -6 -6 -6 -6 -6 -6 -6 -7 -7 -7 -7 -7 -7 -7 -7 -8 -8 -8 -8 -8 -8
-6 -7 -6 -6 -6 -6 -6 -6 -6 -6 -6 -7 -6 -6 -6 -6 -6 -6 -6 -6 -6 -6 -6 -6 -6 -6 -6 -6 -6 -7 -7 -7 -7 -7 -7 -7 -7 -7 -8 -8 -8 -8 -8
-7 -7 -7 -6 -7 -7 -6 -6 -6 -6 -6 -7 -6 -6 -6 -6 -6 -6 -6 -6 -6 -6 -7 -6 -6 -6 -6 -6 -6 -6 -6 -7 -7 -7 -7 -7 -7 -7 -8 -8 -8 -9 -8
-8 -8 -8 -7 -7 -7 -7 -6 -6 -6 -6 -6 -7 -6 -6 -6 -6 -6 -6 -6 -6 -6 -6 -6 -6 -6 -6 -6 -6 -6 -6 -6 -6 -7 -7 -7 -7 -7 -7 -7 -7 -8 -8
-7 -8 -8 -7 -7 -7 -7 -6 -6 -6 -7 -7 -7 -7 -6 -7 -6 -6 -6 -6 -6 -6 -6 -6 -6 -6 -6 -6 -6 -6 -7 -7 -6 -6 -7 -7 -7 -7 -7 -7 -7 -7 -8
-8 -8 -8 -8 -7 -7 -7 -6 -6 -6 -6 -6 -7 -7 -6 -6 -6 -6 -6 -6 -6 -6 -6 -6 -6 -6 -6 -6 -6 -6 -6 -7 -7 -7 -6 -7 -7 -7 -7 -8 -8 -8 -8
-7 -8 -7 -7 -7 -7 -7 -7 -7 -6 -7 -6 -6 -6 -7 -7 -7 -7 -6 -6 -6 -6 -6 -6 -6 -6 -6 -6 -6 -7 -7 -7 -7 -7 -7 -7 -7 -7 -7 -7 -7 -7 -7
-8 -9 -8 -8 -7 -8 -8 -7 -7 -7 -6 -6 -6 -6 -7 -7 -6 -7 -7 -7 -6 -6 -6 -6 -6 -6 -5 -6 -6 -6 -6 -6 -7 -7 -6 -7 -7 -7 -7 -7 -7 -7 -7
-8 -8 -8 -8 -8 -7 -7 -8 -7 -7 -7 -6 -6 -6 -7 -6 -6 -7 -7 -6 -6 -6 -6 -6 -6 -6 -6 -6 -6 -6 -6 -7 -6 -6 -6 -6 -7 -7 -7 -7 -7 -7 -8
-8 -8 -9 -9 -8 -7 -7 -7 -7 -7 -7 -7 -7 -6 -6 -7 -7 -7 -7 -7 -7 -7 -6 -6 -6 -6 -6 -6 -6 -6 -6 -6 -6 -6 -6 -6 -7 -6 -6 -7 -7 -7 -7
Height
5912 5911 5913 5913 5914 5914 5913 5913 5911 5912 5912 5913 5913 5913 5914 5915 5915 5915 5916 5916 5915 5916 5915 5915 5914 5914 5914 5914 5914 5914 5915 5916 5916 5917 5916 5916 5916 5916 5917 5917 5917 5917 5917
5914 5913 5914 5915 5915 5916 5915 5914 5914 5914 5915 5915 5915 5915 5915 5916 5916 5916 5916 5916 5916 5915 5916 5916 5915 5915 5915 5914 5915 5915 5915 5916 5917 5917 5917 5917 5918 5917 5917 5917 5918 5918 5919
5915 5914 5916 5916 5916 5917 5916 5916 5916 5916 5916 5917 5916 5916 5916 5916 5916 5916 5916 5917 5916 5916 5916 5915 5915 5916 5916 5915 5915 5916 5916 5916 5917 5917 5918 5918 5919 5919 5919 5919 5919 5919 5920
5916 5915 5917 5918 5918 5918 5918 5918 5917 5918 5917 5917 5917 5917 5917 5917 5917 5916 5916 5917 5916 5915 5915 5915 5915 5916 5916 5916 5916 5916 5917 5917 5917 5917 5919 5920 5920 5920 5921 5921 5921 5921 5921
5916 5916 5917 5919 5920 5920 5920 5920 5918 5919 5919 5918 5918 5919 5918 5918 5917 5916 5916 5916 5915 5915 5915 5915 5915 5915 5915 5915 5916 5916 5917 5918 5918 5918 5919 5920 5921 5922 5922 5923 5923 5923 5923
5916 5916 5917 5919 5920 5921 5921 5921 5920 5919 5920 5919 5919 5919 5918 5918 5918 5917 5916 5916 5916 5915 5914 5914 5913 5914 5915 5915 5915 5916 5917 5917 5917 5918 5919 5920 5921 5921 5922 5923 5924 5923 5924
5917 5917 5917 5918 5920 5921 5921 5921 5920 5920 5920 5920 5919 5919 5919 5918 5917 5917 5917 5916 5916 5916 5914 5913 5913 5913 5915 5914 5916 5917 5917 5917 5918 5918 5920 5921 5922 5921 5922 5923 5923 5924 5924
5918 5917 5917 5918 5919 5920 5921 5920 5920 5919 5919 5920 5919 5919 5919 5918 5917 5918 5917 5916 5915 5915 5915 5914 5914 5914 5914 5915 5916 5916 5917 5917 5918 5919 5920 5920 5921 5922 5922 5922 5923 5924 5923
5917 5918 5917 5918 5918 5919 5920 5920 5919 5919 5919 5920 5920 5920 5919 5918 5918 5917 5917 5916 5915 5916 5915 5916 5915 5914 5914 5915 5916 5917 5916 5917 5918 5919 5919 5919 5920 5922 5923 5922 5923 5923 5924
5917 5917 5917 5918 5918 5919 5919 5919 5919 5919 5920 5920 5920 5920 5920 5920 5917 5917 5917 5916 5916 5916 5916 5916 5916 5916 5916 5917 5917 5917 5917 5918 5919 5920 5920 5919 5920 5921 5922 5922 5923 5924 5924
5917 5917 5917 5918 5918 5918 5919 5919 5919 5919 5920 5921 5920 5919 5920 5919 5917 5917 5917 5916 5917 5916 5917 5917 5917 5916 5917 5917 5917 5918 5919 5919 5918 5919 5920 5920 5920 5921 5922 5923 5923 5924 5924
5918 5918 5917 5918 5918 5918 5918 5919 5919 5919 5919 5920 5920 5920 5920 5919 5918 5917 5918 5916 5918 5917 5918 5918 5917 5917 5918 5917 5917 5918 5919 5919 5918 5919 5920 5920 5920 5921 5922 5924 5924 5924 5925
5918 5918 5918 5918 5919 5918 5918 5918 5918 5919 5918 5919 5920 5920 5920 5919 5919 5919 5919 5919 5919 5918 5918 5917 5917 5918 5918 5918 5919 5919 5919 5919 5919 5919 5919 5920 5920 5921 5922 5924 5925 5926 5926
5918 5918 5918 5918 5918 5918 5918 5918 5919 5919 5919 5920 5920 5921 5920 5919 5919 5919 5919 5920 5919 5919 5918 5918 5918 5918 5918 5918 5919 5919 5919 5919 5919 5919 5919 5919 5920 5921 5922 5923 5924 5925 5926
5915 5917 5917 5917 5918 5918 5918 5918 5919 5919 5919 5919 5920 5920 5921 5921 5919 5919 5919 5920 5919 5918 5918 5918 5918 5918 5919 5918 5919 5918 5919 5919 5919 5919 5919 5919 5920 5922 5922 5922 5924 5925 5925
5911 5913 5915 5916 5916 5917 5917 5918 5919 5919 5919 5919 5920 5920 5921 5920 5920 5919 5919 5920 5919 5917 5918 5919 5919 5919 5918 5918 5918 5919 5919 5919 5920 5919 5919 5919 5920 5921 5922 5923 5923 5924 5925
5910 5910 5911 5913 5914 5915 5916 5916 5917 5919 5919 5920 5919 5919 5920 5920 5920 5920 5919 5919 5919 5917 5918 5918 5918 5919 5918 5917 5918 5918 5919 5919 5919 5919 5920 5920 5921 5922 5923 5923 5923 5923 5924
5906 5907 5908 5911 5912 5913 5914 5915 5915 5917 5917 5920 5919 5919 5919 5919 5920 5920 5920 5919 5919 5919 5919 5919 5918 5918 5918 5917 5917 5918 5918 5918 5919 5919 5920 5920 5921 5921 5922 5922 5922 5923 5923
5904 5905 5905 5906 5908 5909 5911 5911 5914 5915 5916 5918 5919 5918 5918 5918 5919 5920 5919 5920 5920 5920 5919 5919 5918 5918 5917 5917 5917 5918 5918 5918 5918 5918 5919 5920 5920 5920 5921 5921 5921 5921 5922
5902 5901 5902 5903 5905 5906 5908 5909 5911 5913 5914 5916 5918 5918 5918 5918 5918 5919 5919 5919 5919 5919 5919 5919 5919 5918 5917 5917 5917 5917 5917 5917 5917 5918 5918 5918 5918 5919 5920 5920 5920 5919 5919
5898 5897 5898 5899 5901 5903 5905 5907 5908 5909 5911 5912 5914 5916 5916 5916 5917 5917 5918 5918 5918 5918 5918 5918 5918 5919 5918 5917 5917 5917 5917 5916 5916 5916 5917 5917 5917 5918 5918 5918 5918 5917 5916
5894 5895 5896 5896 5897 5898 5900 5901 5903 5905 5907 5908 5909 5911 5913 5914 5916 5916 5917 5917 5917 5917 5917 5918 5918 5918 5919 5918 5917 5916 5916 5916 5915 5915 5915 5915 5916 5916 5916 5916 5916 5915 5915
5890 5892 5893 5893 5893 5895 5895 5897 5899 5900 5901 5903 5904 5907 5909 5911 5912 5913 5914 5915 5915 5916 5916 5916 5917 5917 5918 5918 5917 5916 5915 5915 5915 5914 5913 5913 5914 5913 5914 5913 5913 5914 5913
5890 5890 5890 5890 5890 5891 5891 5891 5893 5895 5897 5899 5901 5903 5905 5906 5908 5909 5910 5911 5912 5913 5913 5914 5914 5915 5915 5916 5916 5915 5914 5914 5913 5912 5911 5911 5912 5911 5911 5911 5911 5911 5911
5888 5887 5886 5885 5884 5885 5886 5882 5886 5890 5894 5894 5896 5899 5902 5902 5903 5905 5906 5906 5907 5909 5910 5911 5912 5912 5912 5914 5914 5914 5913 5912 5912 5911 5909 5909 5908 5907 5907 5907 5908 5908 5908
5886 5882 5880 5878 5877 5874 5874 5874 5879 5884 5888 5891 5892 5894 5897 5899 5900 5901 5902 5902 5903 5904 5906 5908 5908 5909 5910 5911 5912 5912 5911 5910 5910 5909 5908 5907 5905 5906 5905 5906 5905 5905 5905
Wind_Speed
12 15 12 10 10 9 10 12 13 11 11 11 12 12 12 10 8 8 9 5 3 4 4 3 3 5 6 5 6 10 9 9 10 9 10 9 10 10 9 9 8 7 6
8 12 12 9 9 8 9 10 10 10 10 10 9 10 10 10 8 7 7 6 2 3 6 3 2 5 7 7 7 8 10 10 10 11 10 10 10 11 12 11 9 8 7
7 9 10 10 10 10 11 10 9 9 8 8 8 8 9 10 7 6 6 7 4 1 3 3 1 4 6 4 4 6 8 10 9 11 10 9 10 11 12 12 11 9 8
7 9 8 9 9 8 9 9 9 8 8 7 7 8 9 10 8 6 4 5 1 2 1 1 1 3 4 4 2 6 5 6 7 10 10 9 9 12 11 10 12 10 9
7 7 7 6 7 7 8 9 10 7 7 7 6 6 6 8 8 5 5 4 1 3 4 2 2 2 2 4 6 4 6 5 6 8 9 8 10 11 11 9 10 11 11
5 6 6 4 4 7 7 9 9 8 7 7 7 6 6 8 7 7 4 3 5 7 5 3 3 2 1 0 3 2 3 6 7 7 7 7 9 11 10 11 10 11 10
6 5 5 2 5 6 7 6 7 6 5 6 7 7 8 9 7 7 8 8 7 7 7 6 5 3 5 2 3 5 3 6 5 7 7 5 8 9 10 9 10 10 10
4 7 3 2 6 5 6 5 7 8 4 6 9 8 8 8 9 7 8 9 9 7 8 8 7 4 4 5 3 3 4 2 4 7 8 4 5 7 8 9 8 9 9
3 6 5 4 6 5 5 5 8 9 9 9 10 8 8 10 9 9 8 9 10 9 7 6 8 6 5 6 5 5 5 8 8 5 8 7 5 6 6 8 8 7 7
1 4 7 5 5 4 4 3 6 7 9 9 9 10 8 7 8 10 7 8 10 8 7 5 6 7 4 6 7 7 5 6 3 2 4 5 4 6 6 6 7 5 5
3 1 5 5 5 6 4 2 4 5 6 6 4 10 9 8 7 6 4 7 9 8 8 4 4 5 6 5 6 5 5 6 4 3 5 5 4 3 4 4 4 4 3
3 3 4 5 4 7 6 3 2 4 4 5 6 10 12 10 8 6 5 5 6 8 6 4 3 2 4 5 4 4 3 3 5 3 3 3 3 3 3 2 2 2 2
5 5 4 6 5 6 7 3 2 3 4 5 5 6 9 9 9 9 7 5 4 4 4 5 2 1 1 4 4 3 4 3 1 2 2 2 2 3 3 2 1 1 1
7 5 5 7 7 6 8 5 1 1 2 3 3 3 5 6 6 7 5 6 7 3 3 3 2 1 1 2 2 2 3 2 2 2 0 1 3 3 3 3 3 3 3
7 7 6 6 9 7 10 9 5 2 1 3 3 2 2 3 4 7 6 6 5 2 2 2 2 2 1 1 2 2 1 1 1 1 1 0 2 4 3 3 3 3 5
9 8 9 6 10 9 11 12 9 6 4 4 4 3 2 3 3 4 5 7 8 5 4 5 4 3 2 1 1 2 1 2 2 3 1 1 1 3 4 5 5 6 6
12 13 12 9 10 12 11 13 13 10 7 5 4 4 2 2 1 2 2 4 8 14 4 6 3 2 3 1 1 2 2 3 4 5 5 3 3 3 4 6 7 7 6
15 16 14 12 10 14 14 14 14 13 10 8 5 4 4 2 2 1 1 3 4 5 7 2 1 1 1 1 2 1 1 2 3 5 5 4 4 4 5 5 6 7 7
17 16 15 14 13 14 17 16 15 15 13 11 8 5 3 4 4 2 0 3 3 2 5 5 4 1 2 1 2 1 1 2 2 4 5 5 6 6 7 7 6 7 8
15 14 14 14 14 16 17 19 16 15 15 13 11 9 6 5 5 6 4 3 1 0 3 3 3 3 2 2 3 1 3 3 2 4 5 6 7 7 8 8 9 9 9
16 17 14 16 17 17 19 19 18 19 18 16 15 12 10 9 8 8 7 6 4 3 3 0 1 2 2 2 1 1 3 5 4 3 4 6 7 7 8 9 9 8 8
10 12 14 15 16 17 20 22 20 19 20 17 17 16 14 12 12 11 11 9 9 7 6 4 3 2 5 3 3 2 4 4 6 7 7 7 6 7 8 9 10 10 9
6 13 15 16 18 18 21 23 22 21 23 21 17 15 14 13 14 16 13 12 12 11 9 7 6 5 7 5 6 5 6 7 7 7 10 11 10 10 10 10 10 11 10
8 9 15 17 17 20 23 27 26 24 22 20 17 16 15 15 16 16 16 16 15 15 14 11 10 11 7 7 7 5 6 7 9 10 10 10 13 14 13 13 11 11 12
11 11 15 18 22 24 35 38 31 26 25 22 19 18 17 16 14 18 19 22 19 19 17 17 14 13 9 8 9 9 8 7 9 9 8 13 11 11 11 14 13 16 15
12 15 20 21 23 26 33 39 29 30 31 25 22 18 16 14 13 15 17 20 20 22 22 19 17 15 11 9 11 11 9 8 9 7 9 13 7 13 10 9 7 14 17
Wind_Direction
98 102 100 96 87 81 77 77 80 84 81 78 73 67 63 60 56 51 43 57 46 43 47 57 106 132 119 106 112 122 119 119 138 143 140 136 139 136 135 123 118 112 95
112 109 109 98 86 71 74 81 79 84 84 82 77 70 68 66 57 54 49 55 74 29 21 30 83 143 138 132 128 132 129 128 142 141 132 136 137 137 136 130 122 110 106
119 113 116 107 85 78 77 86 82 83 85 81 75 75 69 54 51 49 51 35 24 308 347 1 228 182 166 144 150 142 141 141 137 124 126 137 143 139 134 131 121 120 115
115 133 121 112 95 80 75 84 84 85 84 78 71 71 59 49 43 34 25 356 354 342 15 329 340 233 234 264 210 162 143 141 142 128 133 136 147 143 134 132 128 129 130
124 126 137 120 96 84 86 86 91 87 81 80 84 73 52 42 22 10 15 9 112 72 69 102 186 209 243 203 216 205 166 157 138 147 138 149 153 145 139 135 129 128 124
115 130 127 177 109 90 91 85 89 88 80 75 78 71 51 31 38 44 60 97 96 77 77 84 98 106 189 29 246 143 142 156 163 141 155 155 150 144 145 138 131 122 127
123 113 121 167 146 91 92 70 68 68 74 75 70 75 58 46 51 64 57 83 83 74 76 72 113 110 68 167 118 79 119 155 171 176 165 153 153 156 151 144 137 131 121
126 123 116 182 153 111 93 70 58 43 65 77 78 77 63 48 60 56 73 80 78 68 78 81 96 91 68 68 86 90 77 125 175 177 183 173 164 170 156 153 145 131 117
103 132 127 151 145 118 89 50 38 38 76 90 85 73 74 66 60 57 69 75 78 72 75 74 74 86 77 60 76 83 98 102 101 125 164 175 171 187 183 163 148 129 112
356 144 145 165 163 144 115 60 26 46 85 105 89 59 70 66 66 56 57 85 74 75 71 66 78 85 96 82 87 75 106 134 160 134 169 166 175 189 189 176 147 132 118
298 186 169 180 180 175 149 115 31 85 95 121 102 46 72 58 53 43 16 97 79 76 65 62 86 90 93 102 91 85 91 95 143 132 183 174 167 182 193 181 147 126 121
257 269 243 208 201 195 177 153 70 79 83 106 73 43 58 55 40 28 9 53 71 72 55 73 60 52 73 93 106 97 94 92 165 138 128 152 165 172 196 193 180 154 159
281 248 252 242 223 206 194 177 100 90 76 98 79 51 62 56 43 50 55 21 38 81 49 58 73 63 58 87 106 85 132 115 145 152 88 163 193 174 196 205 215 239 202
285 270 264 249 231 230 207 192 127 81 134 115 105 80 65 56 49 35 46 63 19 33 57 55 59 63 344 158 69 108 99 135 91 103 268 180 224 200 192 202 225 234 216
262 265 251 236 239 225 216 208 215 251 239 186 158 128 101 60 59 30 57 37 0 349 236 138 103 108 220 255 155 146 145 136 140 48 76 238 246 247 234 212 224 234 242
220 244 242 237 222 233 217 225 229 253 245 221 180 185 157 126 84 51 34 23 19 347 194 169 151 115 124 213 188 181 199 242 202 231 225 213 233 258 257 252 245 235 246
229 231 235 226 229 229 229 225 234 234 241 230 200 197 228 165 140 82 55 31 35 42 111 111 111 113 109 151 172 208 201 225 240 245 232 234 239 269 278 275 265 259 259
241 239 225 243 236 222 234 233 228 224 227 232 225 203 187 222 188 79 176 297 0 45 59 72 107 343 26 42 334 282 263 247 251 247 237 243 243 240 261 265 267 269 262
252 241 234 227 232 225 229 230 224 225 225 233 233 222 211 214 238 203 152 56 55 69 72 43 41 209 24 275 264 331 282 246 248 265 253 230 230 226 235 247 254 266 273
247 247 251 235 230 232 228 227 224 228 226 230 240 238 237 229 233 242 235 246 153 128 64 55 39 32 287 299 243 290 312 311 316 258 252 254 247 249 248 248 252 260 269
252 243 244 239 234 232 229 226 225 224 225 231 238 238 234 247 246 248 240 245 240 208 258 346 30 323 319 104 227 284 297 298 303 302 264 258 262 265 264 256 256 251 258
271 240 233 235 235 234 231 229 216 222 226 229 231 238 244 246 258 252 252 242 249 231 225 242 239 249 289 285 256 294 329 298 280 281 279 276 275 266 269 273 276 274 264
298 254 257 242 242 245 239 237 231 224 225 225 229 237 248 255 255 254 256 248 245 249 238 235 249 251 266 278 273 302 334 333 303 297 275 269 271 275 275 277 273 272 274
336 300 279 280 257 249 252 246 236 230 226 231 229 230 237 241 250 257 259 259 253 244 249 243 238 244 251 279 287 296 297 303 313 318 290 261 260 265 262 272 273 267 269
323 300 305 294 274 260 246 241 234 232 227 219 226 230 234 244 246 257 255 259 257 242 241 239 238 239 247 267 277 283 305 307 294 303 306 279 280 278 271 275 276 269 255
325 317 322 303 290 274 255 250 231 227 229 224 225 229 238 245 244 247 263 259 251 238 236 239 239 239 244 261 278 285 293 292 292 289 298 308 258 280 252 284 288 270 266